EW5676 Weather Reports


Display with metric or nautical units.
time (UTC)temp
F
wind
direction
speed
MPH
gust
MPH
rain 1hr
in
rain 24hr
in
rain mn
in
humidity
%
barometer
mb
20260901040644 71 159 1.0 3.0 0.00 0.00 0.00 89 1023.9
20260901035745 71 143 1.0 3.0 0.00 0.00 0.00 89 1024.0
20260901034845 71 168 2.0 4.0 0.00 0.00 0.00 89 1024.1
20260901033946 71 140 2.0 3.0 0.00 0.00 0.00 89 1024.2
20260901033044 71 136 1.0 3.0 0.00 0.00 0.00 88 1024.3
20260901032144 71 171 2.0 4.0 0.00 0.00 0.00 88 1024.3
20260901031244 71 193 2.0 5.0 0.00 0.00 0.00 88 1024.5
20260901030345 71 185 2.0 5.0 0.00 0.00 0.00 88 1024.5
20260901025445 71 187 2.0 5.0 0.00 0.00 0.00 87 1024.5
20260901024544 71 163 2.0 5.0 0.00 0.00 0.00 87 1024.5
20260901023644 71 150 2.0 5.0 0.00 0.00 0.00 87 1024.5
20260901022745 71 160 3.0 5.0 0.00 0.00 0.00 87 1024.6
20260901020044 71 150 2.0 3.0 0.00 0.00 0.00 86 1024.7
20260901014244 71 131 2.0 5.0 0.00 0.00 0.00 85 1024.7
20260901013344 71 140 1.0 4.0 0.00 0.00 0.00 85 1024.8
20260901012444 71 145 2.0 4.0 0.00 0.00 0.00 84 1024.8
20260901011545 71 134 2.0 4.0 0.00 0.00 0.00 84 1024.8
20260901010644 71 143 1.0 2.0 0.00 0.00 0.00 84 1024.8
20260901005744 71 136 1.0 3.0 0.00 0.00 0.00 84 1024.7
20260901003945 71 142 2.0 5.0 0.00 0.00 0.00 83 1024.7
20260901003044 71 140 3.0 5.0 0.00 0.00 0.00 84 1024.6
20260901002145 71 133 3.0 5.0 0.00 0.00 0.00 84 1024.6
20260901001244 71 154 3.0 6.0 0.00 0.00 0.00 84 1024.6
20260831235444 71 141 2.0 6.0 0.00 0.00 0.00 84 1024.6
20260831234545 71 138 3.0 5.0 0.00 0.00 0.00 83 1024.7
20260831233645 71 142 3.0 6.0 0.00 0.00 0.00 83 1024.8
20260831232745 71 134 3.0 5.0 0.00 0.00 0.00 83 1024.9
20260831231845 71 137 3.0 5.0 0.00 0.00 0.00 83 1025.1
20260831230944 71 144 2.0 4.0 0.00 0.00 0.00 82 1025.0
20260831230045 71 151 3.0 7.0 0.00 0.00 0.00 82 1024.9
20260831223345 72 157 3.0 5.0 0.00 0.00 0.00 81 1024.9
20260831222444 72 154 3.0 6.0 0.00 0.00 0.00 81 1025.0
20260831220644 72 152 4.0 8.0 0.00 0.00 0.00 80 1025.1
20260831215744 72 166 3.0 8.0 0.00 0.00 0.00 80 1025.0
20260831214844 72 152 4.0 6.0 0.00 0.00 0.00 80 1025.0
20260831213944 72 142 4.0 7.0 0.00 0.00 0.00 80 1025.0
20260831213045 72 155 3.0 7.0 0.00 0.00 0.00 80 1025.0
20260831212144 72 161 3.0 6.0 0.00 0.00 0.00 80 1025.1
20260831211244 72 159 3.0 7.0 0.00 0.00 0.00 79 1025.0
20260831210344 72 169 4.0 8.0 0.00 0.00 0.00 78 1025.0
20260831205444 73 153 4.0 8.0 0.00 0.00 0.00 77 1025.0
20260831204545 73 176 4.0 10.0 0.00 0.00 0.00 77 1025.0
20260831203644 73 160 4.0 9.0 0.00 0.00 0.00 76 1025.2
20260831201845 74 168 4.0 7.0 0.00 0.00 0.00 77 1025.2
20260831200944 74 152 3.0 8.0 0.00 0.00 0.00 77 1025.2
20260831200044 74 157 3.0 7.0 0.00 0.00 0.00 77 1025.3
20260831195144 75 171 2.0 6.0 0.00 0.00 0.00 76 1025.3
20260831193344 75 159 2.0 5.0 0.00 0.00 0.00 75 1025.3
20260831192444 75 158 2.0 6.0 0.00 0.00 0.00 75 1025.4
20260831191544 75 105 2.0 5.0 0.00 0.00 0.00 73 1025.3
20260831190645 75 134 3.0 6.0 0.00 0.00 0.00 74 1025.4
20260831185744 76 147 3.0 6.0 0.00 0.00 0.00 73 1025.6
20260831184844 76 168 1.0 5.0 0.00 0.00 0.00 72 1025.7
20260831183944 76 151 2.0 6.0 0.00 0.00 0.00 73 1025.8
20260831183044 76 151 2.0 6.0 0.00 0.00 0.00 72 1026.0
20260831182145 76 108 2.0 5.0 0.00 0.00 0.00 71 1026.1
20260831180345 76 185 3.0 6.0 0.00 0.00 0.00 71 1026.1
20260831175444 76 170 2.0 6.0 0.00 0.00 0.00 71 1025.9
20260831174544 76 146 1.0 7.0 0.00 0.00 0.00 73 1025.9
20260831173644 76 80 4.0 8.0 0.00 0.00 0.00 74 1025.8
20260831172744 77 116 4.0 8.0 0.00 0.00 0.00 72 1025.8
20260831171844 77 192 2.0 6.0 0.00 0.00 0.00 72 1026.1
20260831170944 76 84 2.0 6.0 0.00 0.00 0.00 71 1026.1
20260831165144 76 99 3.0 7.0 0.00 0.00 0.00 71 1026.2
20260831164244 76 124 2.0 6.0 0.00 0.00 0.00 69 1026.3
20260831163345 76 112 2.0 7.0 0.00 0.00 0.00 72 1026.3
20260831162444 76 135 2.0 7.0 0.00 0.00 0.00 69 1026.4
20260831160644 75 90 3.0 7.0 0.00 0.00 0.00 70 1026.3
20260831154845 74 70 3.0 5.0 0.00 0.00 0.00 72 1026.3
20260831153045 74 77 3.0 6.0 0.00 0.00 0.00 72 1026.4
20260831152145 74 49 4.0 6.0 0.00 0.00 0.00 71 1026.5
20260831150344 73 101 5.0 9.0 0.00 0.00 0.00 69 1026.5
20260831145445 73 86 4.0 9.0 0.00 0.00 0.00 74 1026.6
20260831144544 73 58 5.0 9.0 0.00 0.00 0.00 72 1026.8
20260831143645 73 75 4.0 8.0 0.00 0.00 0.00 75 1026.7
20260831142744 72 75 5.0 11.0 0.00 0.00 0.00 77 1026.5
20260831140944 72 57 5.0 8.0 0.00 0.00 0.00 80 1026.6
20260831135144 71 52 4.0 8.0 0.00 0.00 0.00 81 1026.5
20260831134244 71 59 3.0 6.0 0.00 0.00 0.00 82 1026.5
20260831133344 71 53 3.0 8.0 0.00 0.00 0.00 82 1026.4
20260831132445 71 9 3.0 8.0 0.00 0.00 0.00 84 1026.2
20260831125744 70 7 5.0 9.0 0.00 0.00 0.00 84 1026.2
20260831124844 70 31 3.0 7.0 0.00 0.00 0.00 84 1026.3
20260831123944 70 25 4.0 9.0 0.00 0.00 0.00 84 1026.1
20260831123045 70 28 4.0 8.0 0.00 0.00 0.00 85 1026.2
20260831122144 70 16 3.0 8.0 0.00 0.00 0.00 85 1026.2
20260831121244 69 8 3.0 6.0 0.00 0.00 0.00 86 1026.2
20260831120344 69 13 3.0 7.0 0.00 0.00 0.00 87 1026.1
20260831115445 69 353 2.0 6.0 0.00 0.00 0.00 87 1026.0
20260831114544 68 353 2.0 5.0 0.00 0.00 0.00 87 1026.2
20260831113646 68 13 0.0 5.0 0.00 0.00 0.00 87 1026.1
20260831112744 68 2 1.0 4.0 0.00 0.00 0.00 87 1025.9
20260831111844 68 6 3.0 7.0 0.00 0.00 0.00 87 1025.8
20260831110945 68 2 3.0 6.0 0.00 0.00 0.00 87 1025.6
20260831110044 68 349 3.0 5.0 0.00 0.00 0.00 87 1025.6
20260831105144 68 359 3.0 7.0 0.00 0.00 0.00 86 1025.5
20260831103345 68 10 3.0 8.0 0.00 0.00 0.00 86 1025.4
20260831102445 68 5 4.0 7.0 0.00 0.00 0.00 85 1025.2
20260831101544 68 11 5.0 9.0 0.00 0.00 0.00 85 1025.2
20260831100644 68 22 4.0 9.0 0.00 0.00 0.00 86 1025.2
20260831095744 68 23 4.0 7.0 0.00 0.00 0.00 86 1025.1
20260831094844 68 17 4.0 8.0 0.00 0.00 0.00 86 1025.1
20260831093945 68 12 4.0 9.0 0.00 0.00 0.00 87 1025.1
20260831092144 68 4 3.0 7.0 0.00 0.00 0.00 87 1025.0
20260831091245 68 6 2.0 6.0 0.00 0.00 0.00 87 1025.0
20260831090345 69 8 2.0 4.0 0.00 0.00 0.00 87 1024.9
20260831085444 69 29 2.0 5.0 0.00 0.00 0.00 87 1024.8
20260831084545 69 12 1.0 3.0 0.00 0.00 0.00 87 1024.9
20260831082745 69 346 1.0 4.0 0.00 0.00 0.00 87 1025.0
20260831081844 69 346 2.0 5.0 0.00 0.00 0.00 87 1024.9
20260831080944 69 1 3.0 5.0 0.00 0.00 0.00 88 1024.9
20260831075145 69 19 3.0 6.0 0.00 0.00 0.00 91 1024.8
20260831074245 69 12 3.0 7.0 0.00 0.00 0.00 92 1024.8
20260831073344 69 356 3.0 7.0 0.00 0.00 0.00 92 1024.9
20260831072444 70 345 1.0 4.0 0.00 0.00 0.00 92 1024.9
20260831070644 70 350 4.0 6.0 0.00 0.00 0.00 91 1024.7
20260831065744 71 350 3.0 5.0 0.00 0.00 0.00 91 1024.7
20260831064845 71 345 1.0 3.0 0.00 0.00 0.00 91 1024.7
20260831063945 71 320 3.0 5.0 0.00 0.00 0.00 91 1024.8
20260831062144 71 315 2.0 5.0 0.00 0.00 0.00 91 1024.8
20260831061245 71 301 1.0 3.0 0.00 0.00 0.00 91 1024.7
20260831060344 71 291 1.0 3.0 0.00 0.00 0.00 91 1024.7
20260831054545 71 308 0.0 2.0 0.00 0.00 0.00 92 1024.5
20260831053644 71 307 0.0 2.0 0.00 0.00 0.00 91 1024.6
20260831052744 71 314 1.0 4.0 0.00 0.00 0.00 91 1024.6
20260831050944 71 295 1.0 3.0 0.00 0.00 0.00 92 1024.6
20260831050045 71 308 0.0 3.0 0.00 0.00 0.00 92 1024.6
20260831045145 71 320 2.0 4.0 0.00 0.00 0.00 92 1024.5
20260831044244 71 321 2.0 5.0 0.00 0.00 0.00 92 1024.4
20260831043344 72 304 2.0 5.0 0.00 0.00 0.00 93 1024.5
20260831042444 71 281 2.0 5.0 0.00 0.00 0.00 92 1024.3
20260831041545 72 282 2.0 5.0 0.00 0.00 0.00 92 1024.2